EW1549 Weather Reports


time (UTC)temp
F
wind
direction
speed
knots
gust
knots
rain 1hr
in
rain 24hr
in
rain mn
in
humidity
%
barometer
mb
20260510204543 61 187 3.5 7.0 0.00 0.02 0.02 75 1016.4
20260510203035 62 174 2.6 4.3 0.00 0.02 0.02 76 1016.5
20260510201530 63 157 0.9 1.7 0.00 0.02 0.02 73 1016.5
20260510200030 63 8 0.0 1.7 0.00 0.02 0.02 73 1016.5
20260510194529 63 22 0.9 2.6 0.00 0.02 0.02 74 1016.4
20260510193029 63 46 1.7 3.5 0.00 0.02 0.02 74 1016.2
20260510191532 64 2 3.5 7.0 0.00 0.02 0.02 74 1016.3
20260510190028 65 25 3.5 7.0 0.00 0.02 0.02 70 1016.2
20260510184533 65 12 1.7 7.0 0.00 0.02 0.02 70 1015.9
20260510183026 65 36 1.7 7.8 0.00 0.02 0.02 71 1015.8
20260510181557 65 7 3.5 8.7 0.00 0.02 0.02 69 1015.9
20260510180034 66 41 5.2 10.4 0.00 0.02 0.02 70 1015.9
20260510174536 65 19 6.1 10.4 0.00 0.02 0.02 70 1015.8
20260510173019 66 36 4.3 9.6 0.00 0.02 0.02 68 1015.5
20260510171516 66 354 4.3 12.2 0.00 0.02 0.02 70 1015.6
20260510170017 65 289 4.3 8.7 0.00 0.02 0.02 72 1015.6
20260510164513 65 340 4.3 8.7 0.00 0.02 0.02 72 1015.6
20260510163015 66 12 3.5 9.6 0.00 0.02 0.02 69 1015.8
20260510161509 66 329 3.5 8.7 0.00 0.02 0.02 70 1015.7
20260510160009 65 245 5.2 9.6 0.00 0.02 0.02 67 1015.7
20260510154506 65 325 5.2 9.6 0.00 0.02 0.02 67 1016.0
20260510153005 65 353 3.5 8.7 0.00 0.02 0.02 67 1015.8
20260510151504 66 5 4.3 9.6 0.00 0.02 0.02 68 1016.0
20260510150004 65 18 3.5 10.4 0.00 0.02 0.02 68 1016.2
20260510144503 65 327 5.2 10.4 0.00 0.02 0.02 69 1016.3
20260510143000 65 332 1.7 7.0 0.00 0.02 0.02 70 1016.4
20260510141600 64 169 1.7 3.5 0.00 0.02 0.02 70 1016.5
20260510140059 64 1 1.7 5.2 0.00 0.02 0.02 72 1016.7
20260510134606 63 36 2.6 4.3 0.00 0.02 0.02 72 1016.8
20260510133058 63 15 1.7 7.0 0.00 0.02 0.02 73 1016.8
20260510131558 63 2 3.5 7.0 0.00 0.02 0.02 71 1017.1
20260510130057 63 41 2.6 7.0 0.00 0.02 0.02 71 1017.2
20260510124557 63 64 3.5 7.8 0.00 0.02 0.02 72 1017.5
20260510123051 63 41 2.6 7.0 0.00 0.02 0.02 70 1017.8
20260510121550 63 354 1.7 6.1 0.00 0.02 0.02 69 1017.8
20260510120050 63 14 1.7 5.2 0.00 0.02 0.02 71 1017.9
20260510114555 64 22 2.6 7.0 0.00 0.02 0.02 70 1017.9
20260510113044 64 4 3.5 7.8 0.00 0.02 0.02 70 1017.9
20260510111542 63 3 1.7 5.2 0.00 0.02 0.02 69 1018.0
20260510110046 64 22 1.7 5.2 0.00 0.02 0.02 69 1017.9
20260510104541 63 71 2.6 7.0 0.00 0.02 0.02 70 1017.9
20260510103046 64 360 3.5 7.0 0.00 0.02 0.02 69 1017.7
20260510101539 64 19 0.9 3.5 0.00 0.02 0.02 70 1017.5
20260510100052 64 322 1.7 4.3 0.00 0.02 0.02 66 1017.4
20260510094538 64 360 1.7 7.0 0.00 0.02 0.02 66 1017.6
20260510093045 64 28 0.9 5.2 0.00 0.02 0.02 66 1017.5
20260510091539 64 55 1.7 4.3 0.00 0.02 0.02 69 1017.0
20260510090037 64 9 1.7 4.3 0.00 0.02 0.02 69 1017.2
20260510084536 64 21 0.9 2.6 0.00 0.02 0.02 66 1017.2
20260510083038 63 77 0.0 0.9 0.00 0.02 0.02 67 1016.9
20260510081530 61 194 1.7 6.1 0.00 0.02 0.02 67 1017.0
20260510080028 60 191 3.5 7.8 0.00 0.02 0.02 69 1016.9
20260510074529 59 176 4.3 7.0 0.00 0.02 0.02 71 1017.4
20260510073027 58 181 5.2 8.7 0.00 0.02 0.02 76 1017.4
20260510071536 58 187 6.1 9.6 0.00 0.02 0.02 76 1016.9
20260510070026 58 171 4.3 9.6 0.00 0.02 0.02 77 1016.9
20260510064524 57 179 6.1 9.6 0.00 0.02 0.02 79 1016.7
20260510063024 58 179 5.2 7.8 0.00 0.02 0.02 79 1016.8
20260510061533 59 187 1.7 3.5 0.00 0.02 0.02 79 1016.8
20260510060016 60 232 0.9 3.5 0.00 0.02 0.02 79 1016.9
20260510054515 60 237 0.9 3.5 0.00 0.02 0.02 80 1016.6
20260510053013 60 223 0.9 1.7 0.00 0.02 0.02 82 1016.7
20260510051513 60 216 0.0 1.7 0.00 0.02 0.02 83 1016.7
20260510050012 60 214 0.0 0.9 0.00 0.02 0.02 82 1016.5
20260510044511 60 191 0.9 1.7 0.00 0.02 0.02 82 1016.3
20260510043019 60 171 0.0 1.7 0.00 0.02 0.02 83 1016.2
20260510041510 60 227 0.0 1.7 0.00 0.02 0.02 83 1016.1
20260510040009 60 177 1.7 2.6 0.00 0.02 0.02 84 1016.1
20260510034509 60 172 0.9 1.7 0.00 0.02 0.02 84 1015.8
20260510033007 60 160 0.0 1.7 0.00 0.02 0.02 84 1015.8
20260510031515 60 159 0.0 1.7 0.00 0.02 0.02 84 1015.8
20260510030006 60 130 0.0 1.7 0.00 0.02 0.02 84 1016.0
20260510024505 60 164 1.7 2.6 0.00 0.02 0.02 84 1016.1
20260510023004 60 175 0.9 1.7 0.00 0.02 0.02 84 1016.4
20260510021502 60 167 0.9 1.7 0.00 0.02 0.02 85 1016.3
20260510020057 60 174 0.0 0.0 0.01 0.02 0.02 85 1016.3
20260510014556 60 174 0.9 2.6 0.02 0.02 0.02 85 1016.5
20260510011556 60 186 0.9 2.6 0.02 0.02 0.02 80 1016.7
20260510010050 61 204 0.9 2.6 0.01 0.01 0.01 80 1016.9
20260510004551 61 200 1.7 3.5 0.00 0.00 0.00 80 1017.1
20260510003104 62 87 0.9 4.3 0.00 0.00 0.00 80 1017.3
20260510001546 61 185 1.7 4.3 0.00 0.00 0.00 76 1017.6
20260510000046 61 178 1.7 2.6 0.00 0.00 0.00 76 1017.6
20260509234558 62 177 0.9 2.6 0.00 0.00 0.00 76 1017.3
20260509233042 62 173 1.7 3.5 0.00 0.00 0.00 74 1017.3
20260509231550 61 236 0.0 2.6 0.00 0.00 0.00 77 1017.2
20260509230035 61 110 0.0 1.7 0.00 0.00 0.00 79 1017.3
20260509224534 62 187 1.7 3.5 0.00 0.00 0.00 77 1017.2
20260509223031 63 19 0.0 3.5 0.00 0.00 0.00 77 1017.1
20260509221530 63 12 0.9 1.7 0.00 0.00 0.00 75 1017.2
20260509220030 63 347 0.9 1.7 0.00 0.00 0.00 75 1017.3
20260509214532 63 8 0.0 1.7 0.00 0.00 0.00 75 1017.3
20260509213027 63 8 0.0 4.3 0.00 0.00 0.00 75 1017.2
20260509211528 63 10 2.6 5.2 0.00 0.00 0.00 75 1017.1
20260509210026 63 12 2.6 4.3 0.00 0.00 0.00 74 1016.9